Regional Weather Roundup
Issued by NWS

Home | Current Version | Previous Version | Graphics & Text | Print | Product List | Glossary On
Versions: 1 2 3 4 5 6 7 8 9 10 11 12 13 14 15 16 17 18 19 20 21 22 23 24 25 26 27 28 29 30 31 32 33 34 35 36 37 38 39 40 41 42 43 44 45 46 47 48 49 50
000
ASUS43 KLMK 010810
RWRKY
KENTUCKY REGIONAL WEATHER ROUNDUP
NATIONAL WEATHER SERVICE LOUISVILLE KY
400 AM EDT SUN MAY 01 2016

NOTE "FAIR" INDICATES FEW OR NO CLOUDS BELOW 12,000 FEET
WITH NO SIGNIFICANT WEATHER AND/OR OBSTRUCTIONS TO VISIBILITY.

KYZ001>023-026-027-061>063-070>075-010900-
WESTERN AND SOUTH CENTRAL KENTUCKY

CITY           SKY/WX    TMP DP  RH WIND       PRES   REMARKS
PADUCAH        CLOUDY    64  61  90 N5        29.88R
HENDERSON      MOCLDY    61  54  77 NW7       29.88R
OWENSBORO      CLOUDY    63  63 100 CALM      29.88S FOG
HOPKINSVILLE   CLEAR     64  64 100 S2        29.88R FOG
BOWLING GREEN  PTCLDY    67  64  90 SW3       29.88F
GLASGOW        CLOUDY    64  64 100 S3        29.90R
$$

KYZ024-025-028>034-038-045-046-053-010900-
NORTH CENTRAL KENTUCKY

CITY           SKY/WX    TMP DP  RH WIND       PRES   REMARKS
LOUISVILLE/SDF CLOUDY    65  62  90 E3        29.87F
LOUISVILLE/LOU CLOUDY    64  62  93 CALM      29.88F
FORT KNOX      DRIZZLE   63  63 100 S5        29.86F
$$

KYZ035>037-039>044-047>052-055>060-089>105-010900-
NORTHEAST KENTUCKY

CITY           SKY/WX    TMP DP  RH WIND       PRES   REMARKS
LEXINGTON      LGT RAIN  63  61  93 S7        29.91F
COVINGTON      MOCLDY    61  61 100 SW7       29.89F
FRANKFORT      CLOUDY    64  61  90 S7        29.88F
$$

KYZ054-064>069-076>088-106>120-010900-
SOUTHEAST KENTUCKY

CITY           SKY/WX    TMP DP  RH WIND       PRES   REMARKS
JACKSON        LGT RAIN  60  59  96 VRB3      29.96R FOG
LONDON         TSTM      62  61  96 VRB3      29.96R VSB 3/4
SOMERSET       TSTM      59  59 100 SE3       29.95F
MIDDLESBORO    RAIN      61  61 100 W3        29.95F
MONTICELLO     TSTM      63  61  93 VRB7      29.95F
$$




USA.gov is the U.S. government's official web portal to all federal, state and local government web resources and services.